Content
SEND FEEDBACK

Daily
Averages
Monthly
Summary
United States of America

MELROSE, MASSACHUSETTS


Home > North America > United States > Massachusetts
Elevation: 170 feet     Latitude: 42 27N     Longitude: 071 05W

WEATHER
 
SELECT A DAY
Number of Records: 200,450;   Date Range: 1/1/95 - 4/17/14
 
SHARE

PRINT THIS DATA

[ ← Previous Day ]
WEATHER ALMANAC - MAY 10, 2013
[ Next Day → ]
[ °C ]   °F
Weather ElementAverageHighLow
Temperature60.7 °F68 °F (10:54 am)55.4 °F (4:29 am)
Dewpoint55.8 °F59 °F (11:54 am)53.1 °F (11:54 pm)
Humidity84.8 %100 % (1:31 am)63 % (9:54 pm)
Barometer29.93 in29.96 in (8:42 am)29.90 in (12:54 am)
Wind Speed5.9 mph12.7 mph (2:54 pm)
Weather ElementAverage
Visibility6.6 mi
Wind DirectionSSE (165.5 °)

Weather ElementTotal
Precipitation0.11 in
Heating Degree Days3.3 (Base 65)
Growing Degree Days11.7 (Base 50)
Averaged from 33 records on May 10, 2013
WEATHER CONDITIONS BREAKOUT
WIND DIRECTION BREAKOUT
WEATHER BY HOUR - MAY 10, 2013
[ °C ]   °F
Local TimeTemperatureDewpointHumidityBarometerVisibilityWind DirectionWind SpeedGust SpeedPrecipitationEventsConditions
12:54 AM57.9 °F55.9 °F93 %29.90 in7.0 miWNW (300°)8.1 mphOvercast
1:31 AM57.2 °F57.2 °F100 %29.90 in3.0 miWNW (290°)5.8 mph0.05 inRainRain
1:54 AM57.0 °F55.9 °F96 %29.90 in3.0 miWNW (300°)4.6 mph0.06 inRainLight Rain
2:12 AM57.2 °F55.4 °F94 %29.90 in3.0 miNW (320°)3.5 mph0.00 inOvercast
2:28 AM57.2 °F55.4 °F94 %29.91 in3.0 miNW (320°)5.8 mph0.00 inOvercast
2:54 AM57.0 °F55.9 °F96 %29.91 in5.0 miNorth (10°)4.6 mph0.00 inOvercast
3:54 AM55.9 °F55.0 °F97 %29.91 in7.0 miNNW (330°)3.5 mphMostly Cloudy
4:29 AM55.4 °F55.4 °F100 %29.91 in2.0 miWest (280°)3.5 mphOvercast
4:42 AM55.4 °F55.4 °F100 %29.91 in1.0 miNW (310°)4.6 mphOvercast
4:54 AM55.9 °F55.0 °F97 %29.92 in0.5 miWNW (290°)4.6 mphOvercast
5:54 AM55.9 °F55.9 °F100 %29.93 in0.5 miCalmOvercast
6:50 AM57.2 °F55.4 °F94 %29.94 in2.0 miCalmMostly Cloudy
6:54 AM57.0 °F55.9 °F96 %29.94 in2.0 miCalmMostly Cloudy
7:01 AM57.2 °F55.4 °F94 %29.94 in2.0 miVariable3.5 mphMostly Cloudy
7:39 AM57.2 °F55.4 °F94 %29.95 in5.0 miVariable4.6 mphMostly Cloudy
7:54 AM59.0 °F55.9 °F90 %29.95 in5.0 miWNW (300°)3.5 mphMostly Cloudy
8:42 AM60.8 °F55.4 °F82 %29.96 in10.0 miWest (260°)4.6 mphScattered Clouds
8:54 AM61.0 °F55.9 °F83 %29.96 in10.0 miWest (280°)5.8 mphPartly Cloudy
9:54 AM66.0 °F57.0 °F73 %29.95 in10.0 miWNW (290°)4.6 mphScattered Clouds
10:54 AM68.0 °F57.9 °F70 %29.96 in10.0 miVariable3.5 mphScattered Clouds
11:54 AM68.0 °F59.0 °F73 %29.96 in10.0 miEast (90°)8.1 mphScattered Clouds
12:54 PM64.9 °F57.9 °F78 %29.95 in7.0 miEast (90°)8.1 mphScattered Clouds
1:54 PM64.0 °F57.0 °F78 %29.94 in10.0 miEast (100°)9.2 mphScattered Clouds
2:54 PM63.0 °F55.9 °F78 %29.94 in10.0 miEast (100°)12.7 mphMostly Cloudy
3:54 PM64.0 °F57.0 °F78 %29.94 in10.0 miEast (100°)12.7 mphMostly Cloudy
4:54 PM64.0 °F55.0 °F73 %29.93 in10.0 miESE (110°)12.7 mphMostly Cloudy
5:54 PM64.9 °F55.9 °F73 %29.92 in10.0 miEast (100°)9.2 mphMostly Cloudy
6:54 PM62.1 °F55.0 °F78 %29.91 in10.0 miESE (110°)6.9 mphMostly Cloudy
7:54 PM62.1 °F55.0 °F78 %29.93 in10.0 miNNE (30°)4.6 mphMostly Cloudy
8:54 PM63.0 °F55.0 °F75 %29.93 in10.0 miSE (140°)4.6 mphMostly Cloudy
9:54 PM66.9 °F54.0 °F63 %29.93 in10.0 miSSW (210°)9.2 mphMostly Cloudy
10:54 PM66.0 °F54.0 °F65 %29.92 in10.0 miSouth (190°)8.1 mphScattered Clouds
11:54 PM64.9 °F53.1 °F65 %29.92 in10.0 miSSW (210°)10.4 mphMostly Cloudy
Hourly data recorded from KBOS, located 6.61 miles away from Melrose, Massachusetts







STORIES FROM OUR PARTNERS